Weather History for KVIH - June, 2013

Change the Weather History Date:

Friday, June 28, 2013

  Actual Average Record
Temperature  
Mean Temperature 77 °F 76 °F  
Max Temperature 86 °F 86 °F 106 °F (2012)
Min Temperature 68 °F 65 °F 55 °F (2006)
Degree Days  
Heating Degree Days 0 0  
Month to date heating degree days 17 12  
Since 1 June heating degree days 17 12  
Since 1 July heating degree days 4957 4846  
Cooling Degree Days 12 11  
Month to date cooling degree days 206 213  
Year to date cooling degree days 313 320  
Since 1 June cooling degree days 206 213  
Growing Degree Days 27 (Base 50)    
Moisture  
Dew Point 64 °F    
Average Humidity 65    
Maximum Humidity 93    
Minimum Humidity 37    
Precipitation  
Precipitation 0.01 in 0.14 in 2.95 in (1902)
Month to date precipitation 3.22 4.36  
Year to date precipitation 24.52 21.17  
Sea Level Pressure  
Sea Level Pressure 29.83 in    
Wind  
Wind Speed 8 mph (WNW)    
Max Wind Speed 24 mph    
Max Gust Speed 37 mph    
Visibility 10 miles    
Events Rain , Thunderstorm    
T = Trace of Precipitation, MM = Missing Value Source: NWS Daily Summary

Daily Weather History Graph

Daily Weather History Graph

Search for Another Location

Airport or City:

Trip Planner

Search our weather history database for the weather conditions in past years. The results will help you decide how hot, cold, wet, or windy it might be!

Date:

Astronomy

Jun. 28, 2013 Rise Set
Actual Time 5:46 AM CDT 8:34 PM CDT
Civil Twilight 5:15 AM CDT 9:05 PM CDT
Nautical Twilight 4:35 AM CDT 9:45 PM CDT
Astronomical Twilight 3:50 AM CDT 10:29 PM CDT
Moon No Moon Rise 11:48 AM CDT (6/28)
Length of Visible Light 15h 50m
Length of Day
14h 47m
Waning Gibbous, 66% of the Moon is Illuminated
Jun 28
Waning Gibbous
Jun 29
Last Quarter
Jul 8
New
Jul 15
First Quarter
Jul 22
Full

Hourly Weather History & Observations

Time (CDT) Temp. Heat Index Dew Point Humidity Pressure Visibility Wind Dir Wind Speed Gust Speed Precip Events Conditions
12:53 AM 71.1 °F - 69.1 °F 93% 29.86 in 10.0 mi Calm Calm - N/A   Clear
1:53 AM 73.0 °F - 68.0 °F 84% 29.82 in 10.0 mi NE 6.9 mph - N/A   Clear
2:22 AM 73.4 °F - 68.0 °F 83% 29.92 in 10.0 mi WNW 19.6 mph 36.8 mph N/A Thunderstorm Mostly Cloudy
2:31 AM 73.4 °F - 68.0 °F 83% 29.92 in 10.0 mi NW 18.4 mph 26.5 mph N/A   Mostly Cloudy
2:43 AM 71.6 °F - 66.2 °F 83% 29.89 in 10.0 mi NW 8.1 mph - N/A Thunderstorm Mostly Cloudy
2:53 AM 72.0 °F - 66.9 °F 84% 29.86 in 10.0 mi WNW 5.8 mph - N/A Thunderstorm Thunderstorm
3:22 AM 69.8 °F - 66.2 °F 88% 29.91 in 8.0 mi WSW 4.6 mph - 0.01 in Rain Light Rain
3:53 AM 70.0 °F - 68.0 °F 93% 29.84 in 10.0 mi Calm Calm - 0.01 in   Mostly Cloudy
4:53 AM 69.1 °F - 66.9 °F 93% 29.84 in 10.0 mi WNW 3.5 mph - N/A   Mostly Cloudy
5:53 AM 68.0 °F - 66.9 °F 96% 29.83 in 10.0 mi Calm Calm - N/A   Clear
6:53 AM 69.1 °F - 66.9 °F 93% 29.84 in 10.0 mi WNW 5.8 mph - N/A   Clear
7:53 AM 70.0 °F - 66.9 °F 90% 29.85 in 10.0 mi WNW 8.1 mph - N/A   Clear
8:53 AM 73.0 °F - 68.0 °F 84% 29.86 in 10.0 mi WNW 6.9 mph - N/A   Clear
9:53 AM 78.1 °F - 68.0 °F 71% 29.85 in 10.0 mi NW 10.4 mph - 0.01 in   Clear
10:53 AM 81.0 °F 83.8 °F 68.0 °F 65% 29.85 in 10.0 mi West 6.9 mph - N/A   Clear
11:53 AM 84.0 °F 87.0 °F 68.0 °F 58% 29.85 in 10.0 mi West 6.9 mph 16.1 mph N/A   Clear
12:53 PM 84.0 °F 86.3 °F 66.0 °F 55% 29.83 in 10.0 mi WNW 13.8 mph 20.7 mph N/A   Scattered Clouds
1:53 PM 84.9 °F 87.1 °F 66.0 °F 53% 29.81 in 10.0 mi West 11.5 mph - N/A   Clear
2:53 PM 84.9 °F 85.4 °F 62.1 °F 46% 29.79 in 10.0 mi NNW 17.3 mph 26.5 mph N/A   Clear
3:53 PM 86.0 °F 86.1 °F 61.0 °F 43% 29.79 in 10.0 mi NW 12.7 mph 20.7 mph N/A   Scattered Clouds
4:53 PM 84.9 °F 83.7 °F 55.9 °F 37% 29.78 in 10.0 mi NW 16.1 mph 25.3 mph N/A   Clear
5:53 PM 82.9 °F 82.4 °F 57.0 °F 41% 29.77 in 10.0 mi NW 10.4 mph 23.0 mph N/A   Clear
6:53 PM 82.0 °F 82.0 °F 57.9 °F 44% 29.77 in 10.0 mi NW 9.2 mph 17.3 mph N/A   Partly Cloudy
7:53 PM 78.1 °F - 57.9 °F 50% 29.77 in 10.0 mi NW 5.8 mph - N/A   Clear
8:53 PM 73.0 °F - 57.9 °F 59% 29.78 in 10.0 mi WNW 4.6 mph - N/A   Partly Cloudy
9:53 PM 72.0 °F - 57.9 °F 61% 29.78 in 10.0 mi WNW 5.8 mph - N/A   Clear
10:53 PM 72.0 °F - 57.9 °F 61% 29.76 in 10.0 mi WNW 6.9 mph - N/A   Clear
11:53 PM 70.0 °F - 57.0 °F 63% 29.75 in 10.0 mi WNW 5.8 mph - N/A   Clear